Погода в Вязьме

Погода в Вязьме : погода сейчас, прогноз погоды и архив. Всё, что Вы хотите узнать о погоде в Вязьме!

Поиск расширенной информации на нашем сайте:

Другие новости

Новости СМИ2

Главная страница сайта

Новости сайта

03.07.2017

Напоминаем, что на нашем специализированном сайте Метеоцентр.Азия вы можете получить высокодетализированные автоматические прогнозы погоды по пунктам России, СНГ и мира в авиационном формате (включающие направление и скорость ветра, видимость, явления погоды, количество и форму облачности, нижнюю и верхнюю границу облачности).


Погода в Вязьме - сегодня

Время (UTC), дата Ветер
(°,м/с) 
Видим.   Явления Облачность Т
(°С)
Тd
(°С)
f(%) Тe
(°С)
Pmin
(гПа)
dP
(гПа)
Po
(мм)
O2
(г/м3)
Тmin Tmax R s Состояние
почвы
06 16.09.17 230 (ЮЗ) 10 км    6/3 300 м средняя, верхняя 
[Sc|Ac trans|Ci fib]
+10.9 +8.5 85 +11  1016.6  2.3  740  285  +8.3        мокрая 
09 16.09.17 220 (ЮЗ) 10 км    6/3 600 м средняя 
[Sc|Ac trans]
+12.9 +8.7 76 +12  1018.4  742  284           
15 16.09.17 230 (ЮЗ) 10 км    4/3 1000 м средняя, верхняя 
[Sc|Ac trans|Ci fib]
+15.5 +9.4 67 +18  1019  742  281           
21 16.09.17 200 (Ю) 4000 м  дымка  ясно 
+10.7 +9.3 91 +12  1021.5  0.8  744  287           
00 17.09.17 160 (Ю) 4000 м  дымка  ясно 
+7.9 +7.4 97 +9  1022.4  0.6  744  290           
03 17.09.17 160 (Ю) 4000 м  дымка  4/4 300 м 
[Sc]
+9 +8.7 98 +10  1022.3  744  289  +7.1         
06 17.09.17 160 (Ю) 4000 м  слаб. ливневой дождь  10/10 480 м кучево-дожд. 
[Cb calv]
+11.4 +9.8 90 +13  1021.7  -0.3  744  286  +7.1    0.0    мокрая 
03 18.09.17 100 (В) 4000 м  дымка  4/0 верхняя 
[Cc]
+11.6 +10.3 92 +14  1009.4  -2.7  735  282  +11.6         
06 18.09.17 140 (ЮВ) 10 км    4/0 верхняя 
[Cc]
+13.4 +10.2 81 +15  1006.3  -2.8  733  280  +11.4        мокрая 
09 18.09.17 180 (Ю) 10 км    8/0 средняя, верхняя 
[Ac trans|Cc]
+19.8 +12.3 62 +26  1003.7  -1.9  732  272           
18 18.09.17 210 (ЮЗ) 5{13}  10 км    10/10 480 м 
[Sc]
+15.1 +6.2 55 +15  1004.7  0.9  732  278    +22.4       
21 18.09.17 210 (ЮЗ) 5-10{13}  10 км    4/4 300 м 
[Sc]
+14.4 +5.8 56 +14  1003  -1.6  731  279           
00 19.09.17 230 (ЮЗ) 7-12{15}  10 км    8/8 480 м 
[Sc]
+13.3 +6.3 63 +12  1002.8  -0.3  730  280           
03 19.09.17 220 (ЮЗ) 6-12{17}  10 км    8/8 500 м 
[Sc]
+10.7 +6.5 75 +9  1004.6  1.5  731  283  +10.7         
06 19.09.17 250 (З) 6-12{14}  10 км    10/10 300 м 
[Sc]
+11 +6.9 76 +10  1008.2  3.5  734  283  +10.3        мокрая 
09 19.09.17 250 (З) 5{15}  10 км    10/10 630 м 
[Sc]
+11.2 +6.1 71 +10  1012.1  3.8  737  284           
12 19.09.17 250 (З) 4{12}  10 км    9/9 630 м 
[Sc]
+12.6 +5.8 63 +12  1015.2  3.2  739  284           
15 19.09.17 220 (ЮЗ) 10 км    9/9 750 м 
[Sc]
+12.3 +7.1 71 +13  1017.2  1.9  741  284           
18 19.09.17 200 (Ю) 10 км    ясно 
+8.9 +7.3 90 +9  1019.1  1.5  742  288    +13.1       
21 19.09.17 180 (Ю) 4000 м  дымка  ясно 
+6.5 +6.1 97 +7  1020.7  1.3  743  291           
00 20.09.17 180 (Ю) 4000 м  дымка  ясно 
+6.8 +6.5 98 +8  1021.9  1.2  744  291           
03 20.09.17 170 (Ю) 4000 м  дымка  3/0 средняя, верхняя 
[Ac trans|Ci fib]
+3.6 +3.5 99 +4  1023  0.7  744  295  +3.6         
06 20.09.17 170 (Ю) 4000 м  дымка  4/0 верхняя 
[Cc]
+9.2 +8.3 94 +10  1023.3  745  289  +3.3        мокрая 
09 20.09.17 190 (Ю) 10 км    8/0 верхняя 
[Cc]
+15.4 +8 61 +17  1023.3  0.6  746  283           
12 20.09.17 090 (В) 10 км    8/3 1000 м средняя, верхняя 
[Cu Sc|Ac trans|Cc]
+17.3 +7.7 53 +18  1022.8  -0.3  745  281           
Время (UTC), дата Ветер
(°,м/с) 
Видим.   Явления Облачность Т
(°С)
Тd
(°С)
f(%) Тe
(°С)
Pmin
(гПа)
dP
(гПа)
Po
(мм)
O2
(г/м3)
Тmin Tmax R s Состояние
почвы

Для получения пояснительной информации подведите курсор к названию столбца.

ПОГОДА в Вязьме - архив

Всё, что Вы хотите узнать о погоде в Вязьме - удобно и подробно!

Выберите нужную дату (начиная с 1 января 2015* года) и нажмите кнопку "Найти".
Будут отображены архивные сводки погоды по пункту Вязьма, начиная с указанной даты.


Отображать данные в формате CSV (для использования в таблицах Excel)


Внимание! Наш архив погоды предназначен исключительно для личного некоммерческого использования в познавательных целях. Если Вам необходимы официальные справки о состоянии погоды (для производственных, юридических, коммерческих и т.п. целей), обращайтесь в органы Росгидромета.

*Примечание: данная дата относится к архиву по метеостанциям СССР (Россия, СНГ, Балтия).
Архив по метеостанциям Зарубежной Европы и Азии (кроме Китая) хранится 10 дней, по другим регионам земного шара (Китай, Африка, Америка, Австралия, Океания) - 1 день.

Вязьма - район местоположения метеостанции


Название, широта, долгота, высота метеостанции:
Вязьма 55.2°ш. 34.4°д. 251 м над ур. моря [Российская Федерация]

Дополнительная информация

В oтличие oт бoльшинства пoгoдных сайтoв мы публикуем пoдрoбную метеoинфoрмацию в детальнoм прoфессиoнальнoм фoрмате.

Характеристики температуры и влажнoсти вoздуха измеряются на высoте 2 м в тени вдали oт зданий и деревьев.
Скoрoсть ветра измеряется на высoте 10 м (на урoвне рoста челoвека скoрoсть ветра ниже в 1.5-2 раза). Если метеoстанция нахoдится в гoрoде или в лесу, тo скoрoсть ветра занижена на 2-4 м/с пo сравнению с oткрытым местoм. Скoрoсть ветра над акватoриями крупных рек и oзёр, а также на вершинах хoлмoв на 2-5 м/с выше, чем в oбычных услoвиях.
Атмoсфернoе давление в разных тoчках местнoсти мoжет значительнo oтличаться oт давления на метеoстанции, в зависимoсти oт услoвий рельефа (при пoдъёме на 10 м давление пoнижается примернo на 1 мм рт.ст.).